Powrót do katalogu

STARLINK-32242

AktywnyŁącznośćVLEO
NORAD 60429·PAYLOAD·🇺🇸 United States

Wystrzelony Aug 12, 2024 z Cape Canaveral Space Force Station

Loading…

Następne Przeloty (najbliższe 24 godziny)

TLE

ŚwieżeSource: CelesTrak SupGP

Epoka: Sep 15, 2026, 03:09 UTC

1 60429C 24144E   26258.13173611 -.00016564  00000+0 -48953-3 0  2585
2 60429  53.1588  54.8492 0000811  73.0024  35.1199 15.34390921    17

Śledź STARLINK-32242 w czasie rzeczywistym z AllMySat

Download on the App Store